Hutchinson, KS

3:51 PM CDT on August 21, 2019 (GMT -0500)
Hutchinson Municipal

Weather History for KHUT - July, 2019

Change the Weather History Date:

Monday, July 22, 2019

  Actual Average Record
Temperature  
Mean Temperature 75 °F -  
Max Temperature 87 °F 90 °F 108 °F (2017)
Min Temperature 64 °F 66 °F 57 °F (2006)
Cooling Degree Days 10    
Growing Degree Days 25 (Base 50)    
Moisture  
Dew Point 61 °F    
Average Humidity 67    
Maximum Humidity 90    
Minimum Humidity 33    
Precipitation  
Precipitation 0.00 in - - ()
Sea Level Pressure  
Sea Level Pressure 30.13 in    
Wind  
Wind Speed 9 mph (NNE)    
Max Wind Speed 16 mph    
Max Gust Speed 28 mph    
Visibility 10 miles    
Events      
Averages and records for this station are not official NWS values.
T = Trace of Precipitation, MM = Missing Value Source: NWS Daily Summary

Daily Weather History Graph

Daily Weather History Graph

Search for Another Location

Airport or City:

Astronomy

Jul. 22, 2019 Rise Set
Actual Time 6:25 AM CDT 8:49 PM CDT
Civil Twilight 5:55 AM CDT 9:19 PM CDT
Nautical Twilight 5:18 AM CDT 9:56 PM CDT
Astronomical Twilight 4:37 AM CDT 10:37 PM CDT
Moon No Moon Rise 11:39 AM CDT (7/22)
Length of Visible Light 15h 23m
Length of Day
14h 23m
Waning Gibbous, 72% of the Moon is Illuminated
Jul 22
Waning Gibbous
Jul 24
Last Quarter
Jul 31
New
Aug 7
First Quarter
Aug 15
Full

Hourly Weather History & Observations

Time (CDT) Temp. Heat Index Dew Point Humidity Pressure Visibility Wind Dir Wind Speed Gust Speed Precip Events Conditions
12:52 AM 69.1 °F - 64.0 °F 84% 30.05 in 10.0 mi NNE 6.9 mph - N/A   Partly Cloudy
1:22 AM 69.1 °F - 64.9 °F 87% 30.11 in 10.0 mi North 8.1 mph - N/A   Mostly Cloudy
1:42 AM 69.1 °F - 64.9 °F 87% 30.11 in 10.0 mi North 6.9 mph - N/A   Scattered Clouds
1:52 AM 69.1 °F - 64.9 °F 87% 30.04 in 10.0 mi NNE 8.1 mph - N/A   Mostly Cloudy
2:01 AM 69.1 °F - 64.9 °F 87% 30.11 in 10.0 mi NNE 8.1 mph - N/A   Mostly Cloudy
2:30 AM 69.1 °F - 66.0 °F 90% 30.11 in 10.0 mi North 9.2 mph - N/A   Scattered Clouds
2:49 AM 69.8 °F - 66.2 °F 88% 30.12 in 10.0 mi North 8.1 mph - N/A   Mostly Cloudy
2:52 AM 70.0 °F - 66.0 °F 87% 30.05 in 10.0 mi North 10.4 mph - N/A   Mostly Cloudy
3:52 AM 71.1 °F - 66.0 °F 84% 30.05 in 10.0 mi North 11.5 mph - N/A   Overcast
4:45 AM 71.1 °F - 64.9 °F 81% 30.13 in 10.0 mi North 11.5 mph 18.4 mph N/A   Overcast
4:52 AM 71.1 °F - 64.9 °F 81% 30.06 in 10.0 mi NNE 10.4 mph - N/A   Overcast
5:49 AM 69.8 °F - 64.4 °F 83% 30.14 in 10.0 mi North 11.5 mph 20.7 mph N/A   Mostly Cloudy
5:52 AM 69.1 °F - 64.0 °F 84% 30.07 in 10.0 mi North 10.4 mph 20.7 mph N/A   Mostly Cloudy
6:52 AM 66.0 °F - 62.1 °F 87% 30.11 in 10.0 mi North 12.7 mph 21.9 mph N/A   Clear
6:59 AM 66.0 °F - 62.1 °F 87% 30.17 in 10.0 mi North 10.4 mph 21.9 mph N/A   Partly Cloudy
7:52 AM 68.0 °F - 62.1 °F 81% 30.14 in 10.0 mi North 11.5 mph 20.7 mph N/A   Clear
8:52 AM 72.0 °F - 62.1 °F 71% 30.15 in 10.0 mi North 10.4 mph 20.7 mph N/A   Clear
9:52 AM 75.0 °F - 61.0 °F 62% 30.16 in 10.0 mi NNE 13.8 mph 21.9 mph N/A   Clear
10:52 AM 79.0 °F - 59.0 °F 50% 30.17 in 10.0 mi NNE 15.0 mph 27.6 mph N/A   Clear
11:52 AM 82.0 °F 82.1 °F 59.0 °F 45% 30.17 in 10.0 mi NE 12.7 mph 21.9 mph N/A   Clear
12:52 PM 82.9 °F 82.6 °F 57.9 °F 42% 30.16 in 10.0 mi NE 13.8 mph 23.0 mph N/A   Clear
1:52 PM 84.9 °F 84.4 °F 59.0 °F 41% 30.15 in 10.0 mi NNE 13.8 mph 20.7 mph N/A   Partly Cloudy
2:52 PM 84.9 °F 84.2 °F 57.9 °F 40% 30.14 in 10.0 mi North 9.2 mph 23.0 mph N/A   Partly Cloudy
3:52 PM 86.0 °F 84.7 °F 55.9 °F 36% 30.13 in 10.0 mi NNE 12.7 mph 23.0 mph N/A   Clear
4:52 PM 86.0 °F 84.2 °F 54.0 °F 33% 30.12 in 10.0 mi NNE 10.4 mph - N/A   Clear
5:52 PM 84.0 °F 82.6 °F 54.0 °F 35% 30.11 in 10.0 mi NNE 10.4 mph 24.2 mph N/A   Clear
6:52 PM 82.9 °F 81.9 °F 54.0 °F 37% 30.12 in 8.0 mi NNE 16.1 mph 23.0 mph N/A   Clear
7:52 PM 80.1 °F 80.0 °F 54.0 °F 40% 30.13 in 10.0 mi NNE 8.1 mph - N/A   Clear
8:52 PM 75.0 °F - 54.0 °F 48% 30.14 in 10.0 mi NE 5.8 mph - N/A   Clear
9:52 PM 71.1 °F - 54.0 °F 55% 30.17 in 10.0 mi NNE 5.8 mph - N/A   Clear
10:52 PM 64.9 °F - 54.0 °F 68% 30.20 in 10.0 mi North 3.5 mph - N/A   Clear
11:52 PM 66.0 °F - 54.0 °F 65% 30.22 in 10.0 mi North 3.5 mph - N/A   Clear